BAW55LP EGLL-EKCH

Flight info

Callsign BAW55LP
Flight time 1h 24m
Altitude 39000
Route BPK Q295 SOMVA DCT MAVAS DCT ROCZO DCT DOSUR P729 TUDLO
Aircraft A319/M-SDE3FGHIRWY/LB1

Departure

Time 2026-04-25 20:34
Airport London Heathrow Airport (EGLL)

Arrival

Time 2026-04-25 21:58
Airport Copenhagen Kastrup Airport (EKCH)
Time Latitude Longitude Altitude Speed Heading
2026-04-25 20:05 51.46932 -0.48650 91 ft 0 kts 360°
2026-04-25 20:24 51.46931 -0.48650 87 ft 0 kts 360°
2026-04-25 20:24 51.46922 -0.48650 91 ft 3 kts 360°
2026-04-25 20:24 51.46902 -0.48650 88 ft 3 kts 353°
2026-04-25 20:24 51.46884 -0.48642 89 ft 3 kts 311°
2026-04-25 20:25 51.46876 -0.48618 90 ft 2 kts 270°
2026-04-25 20:25 51.46876 -0.48605 88 ft 0 kts 270°
2026-04-25 20:27 51.46876 -0.48644 88 ft 8 kts 270°
2026-04-25 20:27 51.46868 -0.48737 87 ft 8 kts 236°
2026-04-25 20:27 51.46811 -0.48752 87 ft 5 kts 179°
2026-04-25 20:28 51.46793 -0.48752 88 ft 2 kts 180°
2026-04-25 20:28 51.46784 -0.48752 87 ft 2 kts 180°
2026-04-25 20:28 51.46750 -0.48752 87 ft 7 kts 180°
2026-04-25 20:28 51.46692 -0.48752 89 ft 10 kts 180°
2026-04-25 20:29 51.46623 -0.48757 89 ft 9 kts 191°
2026-04-25 20:29 51.46591 -0.48775 89 ft 0 kts 200°
2026-04-25 20:32 51.46585 -0.48778 88 ft 4 kts 199°
2026-04-25 20:32 51.46532 -0.48789 87 ft 11 kts 174°
2026-04-25 20:33 51.46478 -0.48686 88 ft 15 kts 97°
2026-04-25 20:33 51.46479 -0.48422 89 ft 46 kts 89°
2026-04-25 20:33 51.46481 -0.47531 86 ft 112 kts 90°
2026-04-25 20:33 51.46483 -0.46575 89 ft 147 kts 90°
2026-04-25 20:34 51.46516 -0.44158 712 ft 164 kts 90°
2026-04-25 20:34 51.46546 -0.42326 1413 ft 167 kts 87°
2026-04-25 20:34 51.46600 -0.41715 1559 ft 173 kts 77°
2026-04-25 20:34 51.47122 -0.40027 1845 ft 196 kts 52°
2026-04-25 20:35 51.48089 -0.38259 2183 ft 222 kts 50°
2026-04-25 20:35 51.49141 -0.36261 2714 ft 247 kts 50°
2026-04-25 20:35 51.50116 -0.34376 3436 ft 256 kts 50°
2026-04-25 20:35 51.51267 -0.32145 4496 ft 261 kts 50°
2026-04-25 20:36 51.52322 -0.29748 5530 ft 267 kts 64°
2026-04-25 20:36 51.52958 -0.26966 6534 ft 271 kts 71°
2026-04-25 20:36 51.53617 -0.24103 7500 ft 276 kts 63°
2026-04-25 20:36 51.54743 -0.21594 8415 ft 280 kts 43°
2026-04-25 20:37 51.56364 -0.19834 9346 ft 284 kts 21°
2026-04-25 20:37 51.58251 -0.18792 10316 ft 289 kts 19°
2026-04-25 20:37 51.60214 -0.17710 10755 ft 311 kts 16°
2026-04-25 20:37 51.62348 -0.16637 11222 ft 328 kts 16°
2026-04-25 20:38 51.64554 -0.15549 11971 ft 334 kts 16°
2026-04-25 20:38 51.66799 -0.14467 12787 ft 338 kts 15°
2026-04-25 20:38 51.69067 -0.13398 13614 ft 342 kts 15°
2026-04-25 20:38 51.71289 -0.11973 14367 ft 348 kts 28°
2026-04-25 20:39 51.73198 -0.09547 15041 ft 355 kts 46°
2026-04-25 20:39 51.74533 -0.06143 15722 ft 362 kts 66°
2026-04-25 20:39 51.75411 -0.02320 16414 ft 366 kts 69°
2026-04-25 20:39 51.75691 -0.01064 16639 ft 368 kts 69°
2026-04-25 20:40 51.77129 0.05467 17745 ft 375 kts 69°
2026-04-25 20:40 51.78000 0.09461 18436 ft 379 kts 69°
2026-04-25 20:40 51.78881 0.13504 19038 ft 383 kts 69°
2026-04-25 20:40 51.79771 0.17581 19643 ft 387 kts 69°
2026-04-25 20:41 51.80676 0.21710 20253 ft 390 kts 69°
2026-04-25 20:41 51.81587 0.25873 20865 ft 394 kts 68°
2026-04-25 20:41 51.82505 0.30069 21465 ft 398 kts 68°
2026-04-25 20:41 51.83434 0.34313 22055 ft 401 kts 68°
2026-04-25 20:42 51.84357 0.38542 22629 ft 405 kts 68°
2026-04-25 20:42 51.85293 0.42862 23206 ft 409 kts 68°
2026-04-25 20:42 51.86237 0.47228 23763 ft 413 kts 68°
2026-04-25 20:42 51.87185 0.51628 24228 ft 416 kts 68°
2026-04-25 20:43 51.88138 0.56068 24698 ft 419 kts 68°
2026-04-25 20:43 51.89090 0.60515 25172 ft 422 kts 69°
2026-04-25 20:43 51.90059 0.65051 25646 ft 424 kts 69°
2026-04-25 20:43 51.91029 0.69592 26110 ft 427 kts 69°
2026-04-25 20:44 51.92007 0.74156 26573 ft 430 kts 69°
2026-04-25 20:44 51.92975 0.78673 27018 ft 432 kts 69°
2026-04-25 20:44 51.93963 0.83303 27474 ft 435 kts 70°
2026-04-25 20:44 51.94950 0.87949 27926 ft 438 kts 70°
2026-04-25 20:45 51.95942 0.92643 28377 ft 440 kts 70°
2026-04-25 20:45 51.96935 0.97358 28826 ft 443 kts 70°
2026-04-25 20:45 51.97934 1.02105 29261 ft 446 kts 70°
2026-04-25 20:45 51.98939 1.06882 29696 ft 448 kts 70°
2026-04-25 20:46 51.99952 1.11690 30118 ft 451 kts 70°
2026-04-25 20:46 52.00959 1.16476 30497 ft 453 kts 71°
2026-04-25 20:46 52.01977 1.21334 30843 ft 456 kts 71°
2026-04-25 20:46 52.02996 1.26219 31184 ft 458 kts 71°
2026-04-25 20:47 52.04015 1.31134 31522 ft 460 kts 71°
2026-04-25 20:47 52.05034 1.36071 31852 ft 462 kts 71°
2026-04-25 20:47 52.06059 1.41039 32226 ft 463 kts 71°
2026-04-25 20:47 52.07078 1.45994 32717 ft 461 kts 71°
2026-04-25 20:48 52.08089 1.50931 33197 ft 460 kts 71°
2026-04-25 20:48 52.09096 1.55865 33680 ft 458 kts 71°
2026-04-25 20:48 52.10100 1.60781 34168 ft 457 kts 71°
2026-04-25 20:48 52.11105 1.65684 34592 ft 456 kts 71°
2026-04-25 20:49 52.12103 1.70572 34995 ft 456 kts 71°
2026-04-25 20:49 52.13097 1.75466 35390 ft 455 kts 71°
2026-04-25 20:49 52.14087 1.80349 35785 ft 454 kts 71°
2026-04-25 20:49 52.15075 1.85241 36165 ft 454 kts 71°
2026-04-25 20:50 52.16059 1.90124 36540 ft 453 kts 71°
2026-04-25 20:50 52.17040 1.94997 36905 ft 453 kts 71°
2026-04-25 20:50 52.18006 1.99809 37255 ft 452 kts 71°
2026-04-25 20:50 52.18981 2.04682 37595 ft 452 kts 71°
2026-04-25 20:51 52.19955 2.09562 37947 ft 451 kts 71°
2026-04-25 20:51 52.20923 2.14424 38297 ft 450 kts 71°
2026-04-25 20:51 52.21887 2.19272 38635 ft 450 kts 71°
2026-04-25 20:51 52.22849 2.24125 38951 ft 449 kts 71°
2026-04-25 20:52 52.23807 2.28981 39185 ft 449 kts 71°
2026-04-25 20:52 52.24131 2.30621 39226 ft 450 kts 71°
2026-04-25 20:52 52.26677 2.43561 39278 ft 450 kts 71°
2026-04-25 20:53 52.28567 2.53249 39280 ft 449 kts 71°
2026-04-25 20:53 52.30456 2.62979 39279 ft 449 kts 71°
2026-04-25 20:54 52.32273 2.72744 39279 ft 449 kts 72°
2026-04-25 20:54 52.33970 2.82581 39281 ft 449 kts 73°
2026-04-25 20:55 52.35366 2.90753 39277 ft 449 kts 73°
2026-04-25 20:55 52.37360 3.02247 39280 ft 449 kts 72°
2026-04-25 20:56 52.38875 3.10070 39277 ft 447 kts 63°
2026-04-25 20:56 52.40489 3.14372 39272 ft 444 kts 52°
2026-04-25 20:56 52.42294 3.18469 39274 ft 444 kts 52°
2026-04-25 20:57 52.45919 3.26678 39269 ft 444 kts 52°
2026-04-25 20:57 52.49493 3.34788 39270 ft 444 kts 52°
2026-04-25 20:58 52.53113 3.43041 39271 ft 444 kts 52°
2026-04-25 20:58 52.56716 3.51297 39277 ft 444 kts 52°
2026-04-25 20:59 52.60284 3.59499 39277 ft 443 kts 52°
2026-04-25 20:59 52.63875 3.67774 39282 ft 443 kts 52°
2026-04-25 21:00 52.66872 3.74694 39287 ft 443 kts 52°
2026-04-25 21:01 52.72798 3.88443 39289 ft 442 kts 52°
2026-04-25 21:01 52.76351 3.96730 39294 ft 442 kts 53°
2026-04-25 21:02 52.79898 4.05030 39289 ft 442 kts 53°
2026-04-25 21:02 52.83413 4.13284 39284 ft 441 kts 53°
2026-04-25 21:03 52.86951 4.21597 39282 ft 441 kts 52°
2026-04-25 21:03 52.90481 4.29908 39283 ft 441 kts 52°
2026-04-25 21:04 52.93997 4.38234 39278 ft 441 kts 53°
2026-04-25 21:04 52.97475 4.46534 39280 ft 441 kts 53°
2026-04-25 21:05 53.01003 4.54951 39283 ft 441 kts 52°
2026-04-25 21:05 53.04481 4.63271 39281 ft 441 kts 52°
2026-04-25 21:06 53.07976 4.71647 39281 ft 440 kts 52°
2026-04-25 21:06 53.11460 4.80035 39278 ft 440 kts 53°
2026-04-25 21:07 53.14942 4.88436 39271 ft 440 kts 53°
2026-04-25 21:07 53.18399 4.96813 39267 ft 440 kts 53°
2026-04-25 21:08 53.21865 5.05247 39264 ft 440 kts 53°
2026-04-25 21:08 53.25324 5.13697 39266 ft 440 kts 53°
2026-04-25 21:09 53.30493 5.26356 39260 ft 440 kts 53°
2026-04-25 21:09 53.33931 5.34820 39262 ft 439 kts 53°
2026-04-25 21:10 53.37355 5.43293 39265 ft 439 kts 53°
2026-04-25 21:10 53.40774 5.51762 39264 ft 438 kts 53°
2026-04-25 21:11 53.44185 5.60227 39269 ft 437 kts 53°
2026-04-25 21:11 53.47559 5.68630 39263 ft 436 kts 53°
2026-04-25 21:12 53.50946 5.77095 39257 ft 436 kts 53°
2026-04-25 21:12 53.53750 5.84145 39259 ft 436 kts 54°
2026-04-25 21:13 53.57676 5.94066 39258 ft 436 kts 54°
2026-04-25 21:13 53.61041 6.02564 39259 ft 436 kts 53°
2026-04-25 21:14 53.64401 6.11075 39258 ft 436 kts 54°
2026-04-25 21:14 53.67727 6.19544 39261 ft 436 kts 54°
2026-04-25 21:15 53.71072 6.28076 39263 ft 436 kts 53°
2026-04-25 21:15 53.74415 6.36623 39264 ft 436 kts 53°
2026-04-25 21:16 53.77746 6.45198 39256 ft 436 kts 53°
2026-04-25 21:16 53.81066 6.53788 39262 ft 436 kts 53°
2026-04-25 21:17 53.84365 6.62339 39261 ft 436 kts 53°
2026-04-25 21:17 53.87679 6.70946 39258 ft 435 kts 53°
2026-04-25 21:18 53.90983 6.79545 39259 ft 435 kts 53°
2026-04-25 21:18 53.94282 6.88166 39258 ft 435 kts 53°
2026-04-25 21:19 53.97567 6.96795 39260 ft 434 kts 53°
2026-04-25 21:19 54.00825 7.05373 39259 ft 434 kts 53°
2026-04-25 21:20 54.03566 7.12617 39259 ft 433 kts 53°
2026-04-25 21:20 54.07357 7.22652 39256 ft 433 kts 52°
2026-04-25 21:21 54.10589 7.31249 39254 ft 433 kts 52°
2026-04-25 21:21 54.13824 7.39897 39256 ft 432 kts 52°
2026-04-25 21:22 54.17046 7.48553 39251 ft 432 kts 52°
2026-04-25 21:22 54.20263 7.57216 39250 ft 431 kts 52°
2026-04-25 21:23 54.23479 7.65875 39249 ft 431 kts 52°
2026-04-25 21:23 54.26664 7.74476 39244 ft 430 kts 52°
2026-04-25 21:24 54.29849 7.83136 39243 ft 430 kts 52°
2026-04-25 21:24 54.33024 7.91816 39240 ft 429 kts 52°
2026-04-25 21:25 54.36196 8.00490 39232 ft 428 kts 52°
2026-04-25 21:25 54.39346 8.09135 39222 ft 428 kts 52°
2026-04-25 21:26 54.42496 8.17813 39214 ft 428 kts 51°
2026-04-25 21:26 54.45629 8.26509 39206 ft 428 kts 51°
2026-04-25 21:27 54.48764 8.35227 39201 ft 427 kts 51°
2026-04-25 21:27 54.51761 8.43553 39199 ft 427 kts 51°
2026-04-25 21:28 54.54881 8.52245 39194 ft 427 kts 51°
2026-04-25 21:28 54.57989 8.60959 39190 ft 427 kts 51°
2026-04-25 21:29 54.59539 8.65322 38922 ft 428 kts 51°
2026-04-25 21:29 54.61093 8.69703 38499 ft 426 kts 51°
2026-04-25 21:29 54.62643 8.74082 38050 ft 426 kts 51°
2026-04-25 21:29 54.64185 8.78451 37642 ft 426 kts 51°
2026-04-25 21:30 54.65722 8.82813 37240 ft 426 kts 51°
2026-04-25 21:30 54.67265 8.87195 36843 ft 427 kts 51°
2026-04-25 21:30 54.68810 8.91585 36449 ft 428 kts 50°
2026-04-25 21:30 54.69838 8.94504 36193 ft 429 kts 50°
2026-04-25 21:31 54.71899 9.00353 35691 ft 430 kts 50°
2026-04-25 21:31 54.73472 9.04830 35313 ft 431 kts 50°
2026-04-25 21:31 54.75008 9.09220 34947 ft 432 kts 50°
2026-04-25 21:31 54.76562 9.13679 34586 ft 433 kts 50°
2026-04-25 21:32 54.78115 9.18158 34228 ft 433 kts 50°
2026-04-25 21:32 54.79658 9.22625 33829 ft 431 kts 50°
2026-04-25 21:32 54.81191 9.27072 33423 ft 429 kts 50°
2026-04-25 21:32 54.82718 9.31490 33024 ft 426 kts 50°
2026-04-25 21:33 54.84241 9.35894 32631 ft 424 kts 50°
2026-04-25 21:33 54.85756 9.40284 32247 ft 422 kts 50°
2026-04-25 21:33 54.87261 9.44647 31869 ft 420 kts 50°
2026-04-25 21:33 54.88761 9.49000 31493 ft 418 kts 50°
2026-04-25 21:34 54.90232 9.53279 31125 ft 416 kts 50°
2026-04-25 21:34 54.91713 9.57598 30764 ft 414 kts 50°
2026-04-25 21:34 54.93188 9.61904 30401 ft 413 kts 50°
2026-04-25 21:34 54.94650 9.66183 30019 ft 411 kts 49°
2026-04-25 21:35 54.96105 9.70448 29600 ft 408 kts 49°
2026-04-25 21:35 54.97549 9.74694 29185 ft 405 kts 49°
2026-04-25 21:35 54.98976 9.78912 28778 ft 403 kts 49°
2026-04-25 21:35 55.00392 9.83103 28372 ft 400 kts 49°
2026-04-25 21:36 55.01798 9.87266 27979 ft 397 kts 49°
2026-04-25 21:36 55.03175 9.91351 27596 ft 394 kts 49°
2026-04-25 21:36 55.04560 9.95464 27211 ft 392 kts 49°
2026-04-25 21:36 55.05933 9.99544 26830 ft 389 kts 48°
2026-04-25 21:37 55.07298 10.03599 26459 ft 386 kts 48°
2026-04-25 21:37 55.07758 10.04967 26329 ft 386 kts 48°
2026-04-25 21:37 55.09968 10.11701 25713 ft 388 kts 53°
2026-04-25 21:37 55.10845 10.16263 25355 ft 399 kts 63°
2026-04-25 21:38 55.11590 10.20922 24991 ft 398 kts 63°
2026-04-25 21:38 55.12320 10.25576 24638 ft 396 kts 63°
2026-04-25 21:38 55.13039 10.30207 24285 ft 394 kts 63°
2026-04-25 21:38 55.13754 10.34811 23933 ft 392 kts 63°
2026-04-25 21:39 55.14467 10.39404 23574 ft 390 kts 63°
2026-04-25 21:39 55.15177 10.43963 23173 ft 388 kts 62°
2026-04-25 21:39 55.15887 10.48507 22772 ft 385 kts 62°
2026-04-25 21:39 55.16592 10.53020 22378 ft 383 kts 62°
2026-04-25 21:40 55.17291 10.57502 21987 ft 381 kts 62°
2026-04-25 21:40 55.17983 10.61965 21596 ft 379 kts 62°
2026-04-25 21:40 55.18440 10.64914 21345 ft 377 kts 62°
2026-04-25 21:40 55.19122 10.69331 20972 ft 375 kts 62°
2026-04-25 21:41 55.19799 10.73728 20526 ft 373 kts 62°
2026-04-25 21:41 55.20470 10.78099 20034 ft 371 kts 62°
2026-04-25 21:41 55.21347 10.83848 19400 ft 367 kts 62°
2026-04-25 21:41 55.21790 10.86764 19084 ft 366 kts 61°
2026-04-25 21:42 55.22439 10.91052 18610 ft 363 kts 61°
2026-04-25 21:42 55.23074 10.95263 18116 ft 361 kts 61°
2026-04-25 21:42 55.23716 10.99510 17585 ft 358 kts 61°
2026-04-25 21:42 55.24355 11.03719 17056 ft 355 kts 61°
2026-04-25 21:43 55.24987 11.07890 16543 ft 353 kts 61°
2026-04-25 21:43 55.25614 11.12047 16032 ft 351 kts 61°
2026-04-25 21:43 55.26233 11.16176 15531 ft 348 kts 61°
2026-04-25 21:43 55.26844 11.20272 15039 ft 346 kts 62°
2026-04-25 21:44 55.27446 11.24331 14560 ft 344 kts 62°
2026-04-25 21:44 55.28043 11.28353 14080 ft 341 kts 62°
2026-04-25 21:44 55.29228 11.36345 13029 ft 336 kts 63°
2026-04-25 21:45 55.29813 11.40303 12497 ft 334 kts 64°
2026-04-25 21:45 55.30197 11.42913 12141 ft 332 kts 65°
2026-04-25 21:45 55.30956 11.48082 11462 ft 328 kts 66°
2026-04-25 21:45 55.31523 11.51951 10955 ft 326 kts 67°
2026-04-25 21:46 55.32081 11.55768 10449 ft 320 kts 68°
2026-04-25 21:46 55.32625 11.59511 9956 ft 313 kts 69°
2026-04-25 21:46 55.33155 11.63176 9560 ft 306 kts 69°
2026-04-25 21:46 55.33676 11.66767 9178 ft 301 kts 69°
2026-04-25 21:47 55.34185 11.70299 8790 ft 294 kts 69°
2026-04-25 21:47 55.34678 11.73724 8414 ft 286 kts 69°
2026-04-25 21:47 55.35161 11.77071 8042 ft 281 kts 70°
2026-04-25 21:47 55.35641 11.80383 7674 ft 278 kts 70°
2026-04-25 21:48 55.36116 11.83669 7302 ft 276 kts 70°
2026-04-25 21:48 55.36583 11.86923 6946 ft 274 kts 71°
2026-04-25 21:48 55.37045 11.90165 6594 ft 272 kts 71°
2026-04-25 21:48 55.37502 11.93374 6224 ft 270 kts 71°
2026-04-25 21:49 55.37955 11.96551 5896 ft 266 kts 71°
2026-04-25 21:49 55.38399 11.99685 5597 ft 262 kts 71°
2026-04-25 21:49 55.38833 12.02765 5307 ft 258 kts 71°
2026-04-25 21:49 55.39259 12.05790 5021 ft 251 kts 71°
2026-04-25 21:50 55.39665 12.08688 4765 ft 244 kts 71°
2026-04-25 21:50 55.40065 12.11536 4499 ft 237 kts 70°
2026-04-25 21:50 55.40456 12.14304 4235 ft 229 kts 70°
2026-04-25 21:50 55.40708 12.16088 4062 ft 225 kts 70°
2026-04-25 21:51 55.41206 12.19619 3715 ft 218 kts 69°
2026-04-25 21:51 55.41562 12.22179 3453 ft 212 kts 69°
2026-04-25 21:51 55.41905 12.24670 3192 ft 206 kts 69°
2026-04-25 21:51 55.42240 12.27090 3031 ft 201 kts 68°
2026-04-25 21:52 55.42575 12.29477 3002 ft 200 kts 68°
2026-04-25 21:52 55.42894 12.31770 3010 ft 186 kts 68°
2026-04-25 21:52 55.43196 12.33946 3014 ft 181 kts 67°
2026-04-25 21:52 55.43666 12.35927 3006 ft 171 kts 51°
2026-04-25 21:53 55.44433 12.37470 3007 ft 166 kts 38°
2026-04-25 21:53 55.45259 12.38842 3002 ft 164 kts 36°
2026-04-25 21:53 55.46111 12.40187 3008 ft 164 kts 35°
2026-04-25 21:53 55.46967 12.41512 3001 ft 163 kts 34°
2026-04-25 21:54 55.47806 12.42805 2972 ft 158 kts 34°
2026-04-25 21:54 55.48627 12.44063 2834 ft 155 kts 34°
2026-04-25 21:54 55.49436 12.45305 2644 ft 153 kts 34°
2026-04-25 21:54 55.50234 12.46529 2450 ft 151 kts 33°
2026-04-25 21:55 55.51026 12.47743 2243 ft 148 kts 33°
2026-04-25 21:55 55.51787 12.48914 2047 ft 143 kts 33°
2026-04-25 21:55 55.52528 12.50051 1855 ft 140 kts 33°
2026-04-25 21:55 55.53273 12.51193 1659 ft 143 kts 32°
2026-04-25 21:56 55.54018 12.52338 1464 ft 144 kts 33°
2026-04-25 21:56 55.54515 12.53107 1322 ft 134 kts 33°
2026-04-25 21:56 55.55382 12.54450 1054 ft 119 kts 34°
2026-04-25 21:56 55.56004 12.55401 889 ft 117 kts 33°
2026-04-25 21:57 55.56621 12.56356 720 ft 118 kts 34°
2026-04-25 21:57 55.57248 12.57326 569 ft 120 kts 34°
2026-04-25 21:57 55.57878 12.58289 427 ft 120 kts 35°
2026-04-25 21:57 55.58508 12.59262 256 ft 120 kts 35°
2026-04-25 21:58 55.59136 12.60230 87 ft 122 kts 36°
2026-04-25 21:58 55.59752 12.61168 18 ft 106 kts 42°
2026-04-25 21:58 55.60175 12.61826 22 ft 56 kts 40°
2026-04-25 21:58 55.60423 12.62197 23 ft 27 kts 38°
2026-04-25 21:59 55.60568 12.62318 26 ft 14 kts 14°
2026-04-25 21:59 55.60648 12.62348 28 ft 11 kts 11°
2026-04-25 21:59 55.60746 12.62383 30 ft 18 kts 12°
2026-04-25 22:00 55.60973 12.62680 23 ft 19 kts 41°
2026-04-25 22:00 55.61084 12.62851 23 ft 23 kts 41°
2026-04-25 22:00 55.61213 12.63051 28 ft 27 kts 41°
2026-04-25 22:00 55.61343 12.63256 27 ft 27 kts 40°
2026-04-25 22:01 55.61480 12.63466 24 ft 31 kts 41°
2026-04-25 22:01 55.61655 12.63733 26 ft 33 kts 41°
2026-04-25 22:01 55.61759 12.63896 28 ft 18 kts 42°
2026-04-25 22:01 55.61816 12.63986 27 ft 13 kts 41°
2026-04-25 22:02 55.61955 12.64142 23 ft 24 kts 25°
2026-04-25 22:02 55.62083 12.64248 20 ft 19 kts 25°
2026-04-25 22:02 55.62156 12.64310 16 ft 1 kts 25°
2026-04-25 22:02 55.62157 12.64311 16 ft 0 kts 25°
2026-04-25 22:04 55.62188 12.64336 16 ft 9 kts 25°
2026-04-25 22:04 55.62250 12.64415 19 ft 13 kts 58°
2026-04-25 22:04 55.62296 12.64592 19 ft 19 kts 65°
2026-04-25 22:04 55.62335 12.64743 23 ft 10 kts 59°
2026-04-25 22:05 55.62418 12.64778 24 ft 16 kts 357°
2026-04-25 22:05 55.62526 12.64771 20 ft 15 kts 359°
2026-04-25 22:05 55.62602 12.64770 20 ft 5 kts
2026-04-25 22:05 55.62608 12.64786 20 ft 2 kts 74°
2026-04-25 22:06 55.62607 12.64841 20 ft 6 kts 91°
2026-04-25 22:06 55.62607 12.64895 21 ft 0 kts 91°